GEFSSE_500_meanwind_180.txt.gz
Wind_Speed
20 20 20 21 21 21 20 20 19 19 18 17 17 16 15 14 13 13 12 11 10 9 9 8 8 8 8 7 7 7 7 7 7 7 6 6 7 7 8 9 10 11 12
23 22 21 22 23 23 23 22 22 21 21 20 19 18 17 16 16 15 14 13 12 11 11 10 10 9 9 8 8 8 8 8 8 7 7 7 8 8 9 10 11 12 13
25 24 24 24 24 25 25 25 24 24 23 22 21 21 20 19 18 17 16 15 14 13 12 12 11 11 10 9 9 9 9 9 9 8 8 8 9 9 10 11 12 13 13
27 27 27 27 26 27 27 27 27 26 25 24 24 23 22 21 20 19 18 17 16 15 14 13 13 12 11 10 10 11 10 10 10 9 9 9 10 10 11 11 12 13 14
30 29 29 30 29 29 29 29 29 28 27 26 26 26 25 24 23 22 21 20 18 17 16 15 14 13 12 12 11 12 11 11 11 10 10 10 11 11 11 12 13 14 15
32 32 32 32 32 32 32 31 31 30 30 29 28 27 27 26 25 24 23 22 21 19 18 17 16 15 14 13 13 12 12 12 12 11 11 11 11 12 12 13 13 14 15
35 35 34 34 34 34 34 34 33 33 32 31 30 30 29 29 27 26 25 24 23 21 20 19 18 16 15 15 14 13 13 13 13 13 12 12 12 13 13 13 14 15 16
37 37 37 36 36 36 36 36 36 35 35 34 33 32 32 31 30 29 28 27 25 24 22 21 20 18 17 16 15 14 14 14 14 14 13 13 13 14 14 14 15 16 16
40 39 39 39 38 39 38 38 38 38 37 36 36 35 34 33 32 31 30 29 28 26 24 23 21 20 18 17 17 16 15 15 14 14 14 14 14 15 15 16 16 17 18
42 41 40 40 40 40 40 40 40 40 39 39 38 37 36 36 35 33 32 31 29 28 26 24 23 22 20 19 18 17 17 16 16 15 15 15 15 16 16 17 17 18 19
44 44 44 43 42 42 41 42 42 42 41 41 41 40 39 38 37 35 34 33 31 30 28 26 25 24 22 21 20 19 18 17 17 16 16 16 16 17 17 18 19 19 20
46 46 45 45 44 44 43 43 44 43 43 43 42 42 41 40 39 37 36 35 33 31 30 28 27 25 24 23 22 21 20 19 18 18 17 17 18 18 19 19 20 21 21
47 47 47 47 46 46 45 45 45 45 44 44 44 43 42 42 40 39 38 36 35 33 31 30 28 27 26 24 23 22 21 21 20 19 19 19 19 20 20 21 21 22 23
49 48 48 49 48 48 48 47 47 47 46 46 45 45 44 43 42 41 39 38 36 35 33 32 30 29 27 26 25 24 23 22 21 21 20 20 20 21 21 22 23 23 24
49 48 50 50 49 49 49 49 49 48 48 47 47 46 45 45 44 43 41 39 38 36 35 34 32 30 29 28 27 26 25 24 23 22 22 21 21 22 22 23 24 24 25
48 48 48 50 50 50 50 50 50 50 50 49 48 47 46 46 46 45 43 41 40 38 36 35 34 32 30 29 28 27 26 25 24 24 23 22 23 23 24 24 25 26 27
49 48 49 51 50 51 51 51 51 52 51 50 49 49 48 48 47 46 44 43 41 40 38 36 35 34 32 31 30 29 28 27 26 25 24 24 24 25 25 26 26 27 28
49 47 48 50 51 51 51 51 51 52 52 51 50 50 50 49 48 48 46 44 43 41 40 38 37 35 34 32 32 31 30 28 27 27 26 26 26 26 27 27 28 28 30
47 47 48 48 50 51 51 50 51 51 51 52 52 51 51 50 50 49 47 45 44 43 42 40 38 37 35 34 33 32 31 30 29 28 28 27 27 28 28 29 29 30 31
46 46 46 47 49 49 50 50 51 51 52 52 53 52 51 51 50 50 48 46 46 45 43 41 39 38 37 36 35 34 32 32 31 30 30 29 29 29 30 30 31 32 33
45 45 45 46 48 49 49 50 50 51 52 52 53 53 51 51 50 51 50 48 46 45 44 43 40 39 39 38 36 35 34 33 32 31 31 31 31 31 31 32 33 33 34
43 44 44 45 47 49 49 49 49 50 51 52 51 51 51 51 50 50 50 49 48 46 45 43 42 41 40 38 37 36 35 34 33 33 32 32 32 32 33 33 34 35 35
41 42 43 44 46 47 47 49 49 49 50 52 51 51 51 52 51 50 50 48 47 45 44 43 43 42 40 39 38 37 36 35 34 34 33 33 33 33 34 34 35 36 36
39 40 41 43 45 46 46 48 49 49 48 50 51 51 51 51 51 51 51 49 48 46 45 43 43 43 41 40 39 38 37 36 35 34 34 34 34 34 35 35 36 37 37
36 38 39 41 43 45 46 46 48 49 48 48 50 50 51 51 49 50 50 50 48 46 45 43 43 42 41 41 39 38 37 36 36 36 35 35 35 35 36 36 37 38 38
36 38 39 40 42 45 46 47 48 48 47 47 48 49 51 50 51 50 50 50 49 47 45 43 42 42 42 41 40 39 38 37 36 36 36 36 35 36 36 37 38 38 39

GEFSSE_500_meanwind_186.txt.gz
Wind_Speed
20 20 20 20 19 19 18 17 17 16 16 15 14 13 13 12 11 11 10 10 9 8 8 8 8 8 8 8 8 8 8 8 8 8 8 8 8 8 8 9 10 10 11
23 22 22 22 21 21 20 20 19 18 18 17 16 16 15 14 13 13 13 12 11 11 11 10 10 10 9 9 9 9 9 9 8 8 8 8 8 9 9 10 10 11 11
25 25 24 24 23 23 22 22 22 21 20 20 19 18 17 17 16 15 15 14 14 13 13 12 12 12 11 10 10 10 10 10 9 9 9 9 9 10 10 11 11 12 12
27 27 26 27 26 26 25 24 24 24 23 22 21 20 19 19 18 18 17 17 16 15 15 14 14 14 13 12 11 11 11 11 11 10 10 10 10 11 11 11 12 12 12
29 29 29 29 29 28 28 27 26 26 25 25 24 23 22 21 20 20 19 19 18 18 17 16 15 15 15 14 13 13 12 12 12 11 11 11 11 12 12 12 13 13 13
32 32 32 31 31 31 31 30 29 29 28 27 27 26 25 24 23 22 21 21 21 20 19 18 17 17 17 16 15 14 14 14 13 13 12 12 12 13 13 13 13 13 14
35 34 34 34 34 33 33 33 32 32 31 30 29 28 28 27 26 25 24 23 23 22 21 20 20 19 18 17 17 16 15 15 15 14 13 13 13 13 14 14 15 15 15
37 37 37 36 36 36 35 34 34 34 33 33 32 31 30 29 28 27 26 26 25 24 23 23 22 21 20 19 19 18 17 17 16 16 15 14 15 15 15 15 16 16 16
40 40 39 38 38 38 37 36 36 35 35 35 34 34 33 32 30 29 29 29 28 27 26 25 24 23 22 21 21 20 19 19 18 17 16 16 16 16 16 17 17 17 18
42 42 41 40 40 40 39 38 38 38 37 36 36 35 35 34 33 33 32 31 30 29 28 27 26 26 25 24 23 22 21 20 20 19 18 18 17 17 18 18 18 19 19
43 44 43 43 42 42 42 41 40 40 39 39 38 37 37 36 36 35 34 34 33 32 30 30 29 28 27 26 25 24 23 22 22 21 20 20 19 19 19 19 20 20 21
45 45 45 45 44 44 44 43 43 42 41 41 40 39 39 38 38 37 37 36 35 34 33 32 31 30 29 28 27 26 25 24 23 23 22 21 21 21 21 21 21 21 22
46 46 46 46 46 46 46 46 45 44 43 42 42 41 41 40 39 39 38 38 37 36 35 34 33 32 31 30 29 28 27 26 25 24 24 23 23 22 22 22 22 23 23
48 47 48 48 48 48 48 48 48 46 46 45 44 44 43 42 41 40 39 39 38 38 37 36 35 34 33 32 31 30 29 28 27 26 25 25 24 24 24 24 24 24 25
49 49 49 49 50 50 50 49 49 48 48 47 47 46 45 44 44 43 41 40 40 40 39 38 37 35 35 33 32 31 31 30 29 28 27 27 26 26 25 25 26 26 26
49 50 50 51 51 51 51 51 50 50 50 49 49 48 47 46 45 44 44 43 42 42 41 40 39 37 36 35 34 33 32 32 31 30 29 29 28 27 27 27 27 27 28
50 51 51 51 52 52 52 52 52 50 51 51 51 50 48 47 47 46 45 45 44 43 43 42 41 40 38 37 36 35 34 34 33 31 31 30 30 29 29 28 29 29 29
51 51 51 51 52 53 52 53 53 51 51 52 51 51 50 49 49 48 47 47 46 45 45 44 43 42 41 40 38 37 36 35 34 33 32 32 31 31 30 30 30 31 31
51 50 50 51 52 53 53 53 53 53 53 53 52 52 52 51 50 50 49 49 49 47 46 46 44 44 43 41 40 39 37 36 36 35 34 33 32 32 32 32 32 32 33
50 50 50 51 51 52 53 53 53 53 52 53 53 52 52 51 51 50 50 49 50 50 48 47 46 46 45 43 42 40 39 38 37 36 35 34 33 33 33 33 33 33 34
47 47 49 48 49 52 53 53 52 52 53 52 53 53 52 51 51 50 50 50 50 51 50 48 47 47 46 45 43 41 40 38 38 37 37 36 35 35 35 35 34 34 35
46 46 47 47 49 50 51 51 52 52 52 52 53 53 52 52 52 50 50 51 51 51 51 50 49 48 48 46 45 44 42 41 40 39 38 37 36 36 36 36 36 36 36
45 45 46 47 48 49 49 51 52 52 52 52 53 52 52 52 51 51 51 51 51 51 50 51 50 48 49 47 46 46 44 43 41 40 39 38 38 37 37 37 37 36 37
42 43 45 44 45 46 47 49 50 51 51 52 52 51 52 52 51 52 52 51 51 51 51 51 50 49 49 48 46 46 45 43 42 41 41 40 40 39 38 38 38 37 37
40 41 42 42 44 45 46 47 47 49 50 51 51 51 51 52 51 51 51 50 50 51 50 51 50 50 49 48 47 47 46 44 43 42 41 41 40 40 39 39 38 38 38
38 38 40 42 43 44 45 45 45 45 47 48 48 50 49 50 50 49 49 50 50 50 50 51 50 49 49 49 48 47 46 44 42 41 41 40 40 40 40 39 38 39 39

GEFSSE_500_meanwind_192.txt.gz
Wind_Speed
19 19 18 18 18 18 18 17 17 17 17 17 16 16 15 14 14 13 13 13 12 11 10 9 9 8 7 7 7 7 7 6 6 6 6 6 6 6 6 7 7 7 8
21 21 21 20 20 20 20 20 19 19 19 19 18 18 17 16 16 15 15 15 14 13 12 11 11 10 10 9 9 8 8 8 8 8 8 8 8 8 8 8 8 8 8
23 23 23 23 23 22 22 22 22 22 22 21 21 20 19 19 18 17 17 17 16 15 15 14 14 13 12 11 10 10 10 10 10 9 9 9 9 9 9 9 9 9 9
25 25 25 25 25 25 25 24 24 24 24 24 23 23 22 21 20 20 19 18 18 17 17 16 16 15 14 13 12 11 11 11 11 11 11 10 10 10 10 10 10 10 10
28 28 28 27 27 27 27 27 27 27 27 26 26 25 25 24 23 23 22 21 20 19 19 19 18 17 16 15 14 13 13 12 13 13 12 12 12 11 11 11 11 11 12
30 30 30 30 30 30 30 29 29 29 29 29 28 28 27 27 26 25 25 24 23 22 21 20 20 19 19 17 16 16 15 14 14 14 14 14 13 13 12 12 12 13 13
32 32 32 32 32 32 32 32 32 32 32 31 31 30 30 29 28 28 27 27 26 25 24 23 22 21 21 20 19 18 17 17 16 16 16 15 15 15 14 14 14 14 14
34 34 34 35 35 34 35 35 34 34 34 34 33 33 32 32 31 30 29 29 28 27 26 26 25 24 23 22 22 21 20 19 19 18 18 17 17 17 16 16 16 15 16
37 37 38 38 37 37 37 37 37 37 36 36 35 35 34 33 33 33 32 31 30 29 28 28 27 27 26 25 24 23 23 22 21 20 20 19 18 18 18 18 18 17 17
39 40 40 40 39 39 39 39 39 39 39 38 37 37 36 35 35 35 35 34 33 32 31 31 30 29 28 27 26 25 25 24 23 23 22 21 20 20 20 20 19 19 19
42 42 42 42 42 42 42 42 42 42 41 40 39 39 38 38 37 37 37 36 36 35 34 33 32 31 31 30 28 28 27 26 26 25 24 24 23 22 22 21 21 21 21
43 43 43 43 44 44 44 44 44 44 43 42 41 40 40 40 39 39 38 37 37 37 36 35 34 33 33 32 31 30 29 28 28 27 27 26 25 24 24 23 23 22 22
45 45 45 45 46 46 46 47 46 46 45 44 43 42 42 41 41 40 40 39 38 38 38 37 36 36 35 34 33 32 31 30 30 30 29 28 27 26 26 25 24 24 24
46 46 47 48 48 48 48 48 48 48 47 46 45 44 44 43 43 42 41 40 40 39 38 38 38 38 37 35 35 34 33 32 31 31 31 30 29 28 28 27 27 26 26
48 48 49 50 50 49 49 49 49 49 49 48 48 47 46 45 45 44 44 42 42 41 40 40 40 40 39 38 37 36 35 34 34 33 32 32 31 31 30 29 29 29 28
49 50 50 50 51 50 50 49 51 51 50 50 50 49 48 48 47 47 46 45 43 43 42 42 42 42 41 40 39 37 37 36 35 35 35 34 33 33 32 31 31 30 30
50 51 51 51 52 51 50 50 51 52 52 52 52 52 51 51 50 49 48 47 46 45 45 45 44 44 43 42 41 39 39 38 37 37 36 35 35 34 33 33 33 32 32
49 50 51 52 52 52 52 52 52 53 54 54 54 54 54 53 52 51 50 49 49 47 47 46 46 46 45 44 43 41 41 40 39 38 38 38 37 36 35 35 34 34 34
46 48 49 51 52 52 52 52 53 53 55 56 56 56 56 55 54 53 53 52 51 49 49 48 48 47 46 46 45 44 43 42 42 41 39 39 39 38 38 36 36 36 35
44 46 49 50 52 52 52 53 53 53 54 55 56 56 57 56 55 55 55 55 53 52 51 50 49 49 48 47 47 46 45 44 43 43 41 39 39 39 38 38 38 37 37
43 45 47 49 51 51 52 52 53 52 53 54 54 55 56 57 56 55 56 55 54 53 52 51 51 50 50 49 49 48 47 46 45 44 42 41 40 40 40 39 39 39 38
42 43 45 47 49 50 51 52 53 52 52 54 54 55 55 56 55 55 56 56 55 54 53 52 52 52 51 50 50 49 48 48 46 45 44 43 42 42 41 40 40 40 39
42 43 44 45 47 49 51 51 52 51 52 52 53 54 53 54 55 55 55 56 56 55 54 53 52 52 52 52 51 51 50 49 48 47 45 45 44 43 42 41 41 40 40
41 42 44 45 46 48 49 49 50 51 52 52 52 52 53 54 54 54 55 56 56 55 55 53 53 53 53 52 52 51 51 50 49 47 46 45 44 44 43 42 42 41 41
40 42 43 44 46 48 48 48 49 50 50 51 52 52 51 52 53 53 53 53 54 54 54 54 53 53 53 52 51 51 51 51 50 49 48 46 45 45 44 43 43 42 41
40 41 42 43 44 45 46 46 47 48 48 49 49 50 50 51 52 51 52 52 53 53 53 53 53 53 53 52 51 51 51 51 51 50 48 47 45 45 45 44 43 42 42

GEFSSE_500_meanwind_198.txt.gz
Wind_Speed
19 19 19 19 18 19 19 19 18 18 17 17 16 16 15 15 14 14 14 14 13 13 13 13 12 12 12 11 10 10 9 9 8 8 7 7 7 7 7 7 7 7 7
20 20 20 20 20 20 20 20 20 20 20 19 18 18 17 17 16 16 16 15 15 15 15 15 14 15 14 13 12 12 12 11 10 10 9 9 9 9 8 8 8 8 8
23 23 23 22 22 22 22 22 22 22 22 21 21 20 20 20 19 18 18 17 17 17 17 16 16 16 16 16 15 14 14 12 12 11 11 11 10 10 10 10 10 10 10
25 25 25 25 25 24 24 24 24 24 24 24 23 23 22 22 21 21 20 20 19 19 18 18 18 18 18 18 17 17 16 15 14 13 13 13 13 12 12 11 11 11 11
27 27 27 27 27 27 27 26 26 26 25 25 25 25 25 24 24 23 23 22 22 22 21 21 21 20 20 20 19 19 18 17 16 15 15 14 14 14 14 13 13 13 13
30 29 30 30 29 29 29 29 29 28 28 28 27 27 27 27 27 26 26 25 25 24 24 24 23 23 22 22 21 21 20 19 18 18 17 16 16 16 16 16 15 15 14
32 32 31 32 32 32 31 31 32 32 31 31 30 29 29 29 29 29 28 28 27 27 26 26 25 25 25 24 24 23 22 21 21 20 19 18 18 18 18 18 17 17 16
33 33 33 34 34 34 34 34 34 34 34 33 33 32 32 32 32 32 31 31 30 30 29 28 28 26 26 26 26 25 24 23 22 22 21 21 20 20 19 19 19 19 19
34 34 34 35 35 35 35 35 35 35 35 36 36 35 35 34 34 34 34 33 33 33 32 32 30 29 29 28 27 27 26 25 24 24 23 23 22 22 22 21 21 21 21
36 36 36 37 37 37 37 37 38 37 37 37 38 38 37 37 37 37 36 36 35 35 35 34 33 32 31 31 30 29 28 27 26 26 25 25 25 24 24 24 23 23 23
39 39 40 40 39 39 39 40 40 40 39 40 40 40 39 39 39 39 38 38 37 37 36 36 35 34 34 33 32 31 30 29 28 28 27 27 26 26 26 25 25 25 25
41 42 42 42 42 42 42 42 42 42 42 42 42 42 42 41 41 41 40 40 39 39 38 37 37 36 35 35 34 33 32 31 30 30 29 28 28 28 27 27 27 27 27
43 43 44 44 44 45 45 45 45 45 45 45 45 45 44 44 44 43 43 42 41 40 40 39 38 38 37 36 36 35 34 33 32 31 31 30 30 29 29 29 29 29 29
43 44 45 46 46 46 47 47 46 46 46 46 46 46 46 46 46 46 45 44 44 43 42 41 40 40 39 39 38 37 37 36 34 33 33 32 32 31 31 31 31 31 31
44 45 46 47 47 48 48 48 48 48 48 48 48 48 48 47 47 47 47 46 45 44 44 43 42 41 41 40 40 40 39 38 37 35 34 34 33 33 32 32 32 32 32
45 46 47 48 49 49 49 50 50 50 50 50 50 49 49 49 49 49 48 47 46 46 45 45 44 44 43 42 42 41 41 40 39 38 37 36 35 35 35 34 34 34 34
46 47 48 49 50 51 51 52 52 52 52 51 51 51 51 50 50 50 49 49 49 48 47 47 47 46 45 44 44 43 43 42 41 40 39 38 37 36 36 35 35 36 35
46 47 49 50 50 52 52 53 54 54 54 53 52 53 53 53 52 51 51 51 50 50 50 49 49 48 47 47 46 45 45 44 43 42 41 40 39 38 38 37 37 37 37
47 47 48 48 49 50 52 53 54 55 55 54 54 54 54 55 54 54 54 53 52 51 51 51 51 50 50 49 48 47 46 46 45 44 43 42 40 40 40 39 39 39 38
46 47 47 47 47 48 50 52 53 54 54 54 55 54 55 55 55 55 54 54 54 53 53 53 53 53 52 50 50 49 48 48 47 46 44 43 42 42 41 40 40 40 40
45 46 46 47 47 47 49 50 51 52 53 54 55 54 54 54 55 55 55 55 55 55 55 55 55 55 54 53 52 51 50 49 49 48 47 46 44 43 43 42 42 42 41
45 45 45 46 46 47 48 48 49 50 51 53 55 54 55 55 55 56 55 55 55 56 56 56 56 56 56 54 53 52 51 50 50 50 49 48 46 45 45 44 43 43 42
44 44 45 45 45 45 46 46 47 48 49 50 53 55 56 56 55 55 56 56 56 57 57 57 57 57 56 55 54 53 52 52 51 51 50 49 48 48 47 45 44 43 43
43 44 44 44 43 44 45 46 46 46 47 48 51 53 54 55 55 56 57 57 56 56 56 56 56 56 56 55 55 54 54 53 53 52 51 50 49 49 48 47 45 44 44
43 43 42 43 43 44 44 45 46 47 48 49 50 52 52 53 54 55 55 55 55 55 54 55 55 56 56 55 55 54 53 53 53 53 52 50 50 49 49 48 47 46 45
43 43 42 42 43 43 44 45 46 47 48 49 49 51 51 52 54 53 53 53 53 53 52 52 53 54 53 54 53 52 52 51 51 51 51 50 49 49 49 48 48 47 47

GEFSSE_500_meanwind_204.txt.gz
Wind_Speed
16 16 17 17 17 17 16 16 16 17 17 17 17 16 16 15 15 14 14 14 13 13 13 13 13 13 12 12 12 11 11 11 11 10 10 10 10 9 9 9 9 9 9
18 18 18 18 19 18 18 18 18 18 18 18 18 18 18 17 17 17 16 16 15 15 15 15 15 15 15 14 14 13 13 13 13 13 12 12 12 11 11 11 10 10 11
21 21 21 21 21 20 20 20 20 20 20 20 20 20 20 20 19 19 19 18 18 18 17 17 17 16 17 17 16 16 15 15 15 15 15 14 14 13 13 13 12 12 12
22 22 22 23 23 23 23 22 22 22 21 21 21 22 22 22 21 21 21 20 20 20 20 19 19 18 18 18 18 18 17 17 17 16 16 15 15 15 15 15 14 14 14
23 24 24 25 25 25 25 25 25 24 24 24 23 23 23 23 23 23 23 22 22 22 22 22 21 21 21 20 20 20 20 19 18 18 18 17 17 17 17 17 17 17 16
25 26 27 27 27 27 27 26 26 26 26 26 26 26 25 25 25 25 25 25 25 24 24 24 24 24 23 23 23 22 21 21 21 20 20 19 19 19 18 19 19 19 19
28 28 28 28 29 29 29 29 29 28 28 28 28 28 28 28 28 28 27 27 27 27 27 27 27 26 26 25 25 25 23 23 23 23 22 22 21 21 20 20 21 21 21
29 29 30 30 30 30 31 31 31 31 30 30 30 30 30 30 30 30 30 30 30 29 29 29 29 29 28 28 27 26 25 25 24 24 24 24 23 23 23 22 22 23 23
30 30 31 31 31 32 32 32 32 33 33 33 33 32 32 32 32 33 32 32 32 32 32 32 31 31 30 30 29 28 27 27 26 26 26 26 25 24 24 24 24 24 24
32 32 32 33 33 33 34 34 34 34 34 34 34 34 34 34 34 34 34 34 34 34 34 33 33 33 33 32 31 31 30 29 28 28 28 27 27 26 26 26 26 25 25
35 35 35 35 35 35 35 36 36 36 36 36 36 37 37 37 36 36 36 36 36 36 35 35 35 35 35 34 34 33 32 31 30 30 30 29 29 29 28 28 28 28 27
36 37 37 37 37 37 38 38 38 38 39 39 39 39 39 39 39 39 39 39 39 38 38 37 37 36 36 35 35 35 34 34 33 33 32 31 31 31 30 30 30 30 29
37 38 38 38 39 39 39 40 40 41 41 41 41 41 41 41 41 41 41 41 41 40 40 40 39 39 38 37 37 37 36 35 35 35 35 34 33 33 32 32 31 31 31
37 38 39 40 40 40 41 41 42 43 43 43 44 44 44 44 44 44 43 43 43 43 43 43 42 41 41 40 40 39 38 38 37 37 36 36 36 35 35 34 33 33 33
38 39 39 40 41 42 42 43 43 44 45 46 46 46 46 46 46 46 46 46 45 45 45 45 44 44 43 42 42 41 41 40 39 38 38 38 37 37 37 36 36 35 34
39 40 41 41 43 43 44 45 46 46 46 47 47 47 47 47 47 47 47 47 47 47 46 46 46 46 45 44 43 43 42 42 41 40 40 40 39 39 39 38 37 36 36
40 41 41 43 44 44 45 46 47 47 47 47 48 49 49 49 49 48 48 48 48 48 48 48 48 47 47 46 45 45 44 44 43 42 42 41 41 41 40 40 40 39 38
40 41 42 44 44 45 46 47 48 48 48 49 49 50 51 51 51 50 50 50 50 50 50 50 50 50 49 49 48 47 46 45 45 44 44 44 44 43 43 43 42 41 40
41 42 43 44 45 45 46 47 48 49 50 51 52 52 53 54 53 52 53 53 52 52 52 53 52 52 51 51 50 49 48 47 47 46 46 46 45 45 45 45 44 43 42
41 42 43 44 46 46 47 48 49 50 51 52 53 54 55 56 56 55 55 55 54 54 54 54 54 53 53 53 52 51 50 50 49 48 48 47 47 47 46 46 46 45 44
42 43 44 46 47 48 49 50 50 50 51 52 53 54 55 56 57 57 57 57 56 56 55 55 55 55 55 55 54 53 52 52 51 50 50 49 49 49 48 48 47 46 45
44 45 46 47 48 49 50 51 51 51 52 52 53 54 55 56 57 58 58 58 58 57 57 57 57 57 56 56 55 54 54 53 52 52 52 51 51 50 50 49 48 47 47
45 46 47 48 49 50 51 52 52 52 52 52 52 53 54 56 56 57 57 58 58 59 58 58 58 58 57 56 56 56 55 54 55 53 52 52 52 51 51 50 50 49 48
44 46 47 48 49 50 51 52 52 52 52 51 51 51 53 54 55 55 56 56 57 58 60 59 59 59 58 57 56 56 55 55 56 54 53 53 53 52 52 52 52 51 50
44 45 46 47 48 49 50 51 51 52 51 51 50 50 51 52 53 54 54 54 55 56 57 59 58 57 57 57 56 55 56 55 55 56 54 53 53 53 53 52 52 52 51
44 45 45 46 47 48 49 50 50 51 50 49 49 48 49 50 51 51 53 53 53 53 53 54 55 55 55 55 55 55 55 54 55 55 55 54 53 52 52 52 52 51 51

GEFSSE_500_meanwind_210.txt.gz
Wind_Speed
18 18 17 17 17 16 16 15 15 14 14 14 13 13 13 13 12 12 12 12 12 11 11 11 11 11 11 11 11 10 10 11 11 11 11 11 10 10 10 10 10 10 10
20 20 19 18 18 18 17 17 16 16 16 15 15 14 15 15 14 14 14 14 14 14 14 13 13 13 13 13 13 12 12 12 13 13 13 13 12 12 12 11 11 12 12
21 21 21 21 20 20 19 18 18 18 17 17 16 16 16 16 16 16 16 16 16 16 16 15 15 15 14 15 15 15 15 14 15 14 14 14 14 14 14 13 13 13 13
22 22 22 22 22 22 22 21 20 20 19 19 18 18 18 18 18 17 18 17 17 17 17 17 17 16 16 16 16 16 17 17 16 16 16 16 16 15 15 15 15 15 15
23 23 24 24 24 24 24 23 22 22 21 21 21 20 20 20 20 20 20 19 19 19 19 19 18 19 18 18 18 18 19 19 19 18 18 18 17 17 17 17 17 17 18
25 25 25 25 25 25 25 25 24 24 24 23 23 23 22 22 22 22 22 22 22 21 21 21 21 21 21 21 21 21 21 21 21 20 19 20 19 20 20 20 20 19 19
27 27 27 27 27 27 26 26 26 26 25 25 25 24 24 24 24 24 24 24 24 24 24 24 24 23 23 23 23 23 23 23 22 22 21 21 21 21 22 22 21 21 22
30 29 29 29 29 29 28 28 28 28 27 27 27 26 26 26 26 26 26 26 26 26 26 26 26 26 25 25 25 25 25 25 24 24 23 23 23 23 23 23 23 23 23
31 31 31 31 31 31 31 30 30 30 30 29 29 29 28 28 28 28 28 28 28 28 28 28 28 28 28 28 27 27 27 27 26 26 26 26 25 25 25 26 25 25 25
33 33 33 33 33 33 32 32 32 31 31 31 31 31 31 30 30 30 30 30 30 30 30 30 30 30 30 30 30 29 29 28 28 28 28 28 28 28 27 27 27 27 27
34 34 34 34 34 34 34 34 33 33 33 33 33 33 33 32 32 32 32 32 32 33 33 33 33 33 32 32 32 32 31 31 31 31 30 30 30 30 30 29 29 29 29
35 35 35 35 35 35 35 35 35 35 35 35 34 34 34 34 34 35 34 34 35 35 35 36 36 36 35 35 35 34 33 33 33 33 33 32 32 32 32 31 31 31 31
35 36 35 36 36 36 36 36 37 37 37 37 36 36 36 36 37 37 37 37 37 37 38 38 38 38 38 38 38 37 36 36 35 35 35 34 34 33 33 33 32 32 32
36 36 36 36 37 37 37 37 37 37 37 37 38 38 38 38 38 39 39 40 40 40 40 40 40 40 40 40 40 40 39 39 38 37 37 37 36 36 35 35 35 34 34
36 36 37 37 37 38 38 38 38 38 38 38 39 39 39 40 40 41 41 41 42 42 43 42 42 43 42 42 42 42 42 41 39 39 39 39 39 38 37 36 36 36 36
36 36 37 38 38 39 39 39 39 40 40 41 41 41 42 42 43 43 44 44 44 45 45 45 44 44 44 44 44 44 44 43 42 42 41 41 41 40 39 38 38 38 38
36 37 38 38 39 40 40 41 42 42 43 43 44 44 44 44 45 45 46 46 47 47 47 47 47 47 47 47 47 47 46 46 45 44 44 43 43 42 42 41 40 40 40
37 38 39 40 40 41 42 43 43 44 44 45 46 46 46 46 47 47 48 48 49 49 49 49 49 49 49 49 49 49 48 48 48 47 46 45 45 44 44 44 43 42 42
38 39 40 41 42 43 43 44 45 45 46 47 47 48 48 48 49 49 50 50 51 51 51 51 51 51 51 52 51 51 50 50 50 50 49 48 48 47 47 46 45 45 45
39 40 41 42 43 44 44 45 45 45 46 47 47 48 49 50 50 51 51 52 52 53 53 53 53 53 53 53 53 53 52 52 52 52 51 51 50 49 49 49 48 47 47
40 41 42 42 43 44 44 44 45 45 46 47 47 49 50 51 52 52 53 54 54 54 55 55 56 56 56 56 55 55 54 54 54 54 53 53 52 52 51 51 50 49 49
41 42 43 43 44 45 45 46 46 47 47 48 48 49 50 51 52 54 54 55 56 56 56 57 57 57 57 57 57 58 57 55 55 55 55 54 54 54 53 53 52 52 51
42 43 44 45 45 46 47 47 47 48 49 49 49 49 50 51 53 54 55 56 57 57 58 58 59 59 59 59 59 60 60 59 58 57 56 56 55 55 54 54 54 53 52
43 44 45 45 46 47 48 48 49 49 49 50 50 51 51 53 54 56 56 57 57 58 59 59 60 61 61 60 60 61 61 60 60 59 58 57 57 56 56 55 55 54 54
44 45 45 46 47 48 48 49 50 50 51 52 52 53 53 54 56 57 57 57 57 58 59 60 61 61 61 60 60 60 60 59 59 60 59 57 56 56 56 54 54 54 54
45 46 46 46 47 48 49 50 51 52 52 53 54 55 55 56 57 57 57 57 58 58 58 58 58 58 59 59 59 59 60 59 59 59 59 58 57 56 55 54 54 54 53

GEFSSE_500_meanwind_216.txt.gz
Wind_Speed
18 18 17 17 17 16 16 16 15 15 15 14 14 14 13 13 12 12 11 11 10 10 9 9 9 9 9 9 9 9 9 9 9 9 9 9 9 9 9 9 9 9 9
20 19 19 18 18 18 17 17 17 16 16 16 15 15 15 14 14 14 13 13 12 12 12 12 12 11 11 12 11 11 11 11 11 11 11 11 11 10 10 11 10 10 11
21 21 21 20 20 19 19 19 19 18 18 17 17 17 16 16 15 15 15 15 14 14 14 13 13 13 13 13 13 13 12 12 13 13 13 13 13 13 12 12 12 13 13
22 22 22 22 22 21 21 20 20 20 19 19 18 18 18 18 17 16 16 16 16 16 15 15 15 15 14 14 15 15 15 15 14 14 15 15 15 15 14 15 15 15 15
23 23 23 23 23 23 23 22 22 21 21 20 20 20 19 19 18 18 18 18 17 17 17 17 17 17 16 16 16 16 17 17 17 16 16 16 16 16 16 17 16 16 17
24 24 23 23 24 24 24 24 23 23 23 22 22 22 21 21 21 20 20 19 19 19 19 19 19 19 19 19 18 18 18 18 18 18 18 18 18 18 18 18 18 18 18
26 26 25 25 25 25 25 25 25 25 24 24 24 24 23 23 23 23 22 22 21 21 21 22 22 21 21 21 21 21 21 20 20 20 20 20 20 20 20 20 20 21 21
27 27 27 26 26 26 26 26 26 26 25 25 25 24 24 24 24 25 24 24 24 24 24 24 24 24 23 23 23 23 23 23 23 23 23 23 23 23 23 23 23 23 23
29 28 28 28 28 28 27 27 27 27 28 27 27 27 26 27 26 26 26 26 26 26 25 25 25 25 25 25 25 25 25 25 25 25 25 25 25 25 25 25 25 25 24
30 30 30 30 30 30 30 30 29 29 29 29 29 29 29 29 29 29 28 28 28 28 28 27 27 27 27 27 27 27 28 28 28 28 28 28 28 27 27 27 27 26 26
32 32 32 31 32 32 32 31 31 31 31 31 31 31 31 30 30 30 30 30 29 29 29 29 29 29 30 30 30 30 30 30 31 31 31 31 30 30 30 29 29 28 28
33 33 33 33 33 33 33 33 33 33 32 32 32 32 32 32 32 32 32 32 32 32 31 31 32 32 32 32 32 32 33 33 33 33 34 33 33 33 32 32 31 31 31
33 33 33 33 34 34 34 34 34 34 34 34 34 34 34 33 34 34 34 34 34 34 34 34 34 34 34 34 35 35 35 35 35 35 36 36 36 35 35 35 34 33 33
34 34 34 34 35 35 35 35 35 35 35 36 35 35 35 35 35 35 35 36 36 36 36 36 37 37 37 37 37 37 38 38 37 37 37 37 37 37 37 37 36 36 35
34 35 35 36 36 36 36 36 36 36 36 36 37 36 36 36 36 37 37 38 38 38 38 39 39 39 40 40 40 40 41 40 40 40 39 39 39 39 39 38 38 38 38
34 35 35 36 36 37 37 36 37 37 37 37 37 37 38 38 39 39 39 39 40 40 41 41 42 42 42 43 43 43 43 43 43 43 43 43 43 42 42 41 40 40 40
34 35 35 36 36 37 37 37 37 38 38 38 38 39 39 40 40 40 41 41 41 42 42 43 43 44 44 44 45 45 45 46 46 46 46 46 46 45 45 44 44 43 43
35 35 36 36 37 37 38 38 38 39 40 40 40 40 41 41 42 42 42 42 43 43 44 44 45 45 46 47 47 48 48 48 49 49 48 48 48 48 47 47 47 46 46
36 37 37 37 38 38 38 39 39 40 40 41 41 42 43 43 43 44 44 44 45 45 46 46 47 47 48 49 50 50 51 51 51 51 51 51 51 50 50 50 49 49 48
36 38 39 39 39 39 40 40 40 41 42 42 43 44 45 45 45 46 46 47 47 47 48 49 50 50 51 52 52 53 53 53 53 53 52 52 52 52 52 52 51 51 50
36 38 39 40 40 41 41 41 42 43 43 44 45 46 46 47 47 47 48 49 49 50 50 51 51 52 52 53 54 54 54 54 53 52 53 53 53 53 53 53 53 53 53
38 38 39 41 42 42 42 43 43 44 44 45 45 46 47 47 47 48 49 49 50 51 51 51 52 52 53 54 55 55 54 53 53 53 53 54 54 54 54 54 54 54 55
39 39 40 41 42 43 43 43 43 44 45 46 46 47 47 48 48 48 49 49 50 51 51 51 52 53 53 53 52 53 54 54 54 54 54 55 56 56 57 57 57 57 57
40 40 41 41 42 43 43 44 44 45 46 46 47 47 48 48 48 49 49 50 51 51 52 53 54 53 53 53 54 55 55 56 57 56 56 57 58 58 59 59 59 59 59
40 41 41 42 43 44 44 45 45 46 47 47 48 49 49 49 49 50 50 51 52 52 53 53 53 53 54 54 55 56 57 58 58 59 58 58 58 59 59 60 60 60 59
41 42 42 43 43 44 44 44 45 47 48 48 49 50 50 50 51 51 52 53 53 54 54 53 54 54 54 55 56 57 58 58 59 60 60 59 59 59 59 59 59 58 57